Regional Weather Roundup
Issued by NWS

Home | Current Version | Previous Version | Graphics & Text | Print | Product List | Glossary On
Versions: 1 2 3 4 5 6 7 8 9 10 11 12 13 14 15 16 17 18 19 20 21 22 23 24 25 26 27 28 29 30 31 32 33 34 35 36 37 38 39 40 41 42 43 44 45 46 47 48 49 50
000
ASUS43 KDTX 031810
RWRMI
MICHIGAN HOURLY REGIONAL WEATHER ROUNDUP
NATIONAL WEATHER SERVICE DETROIT/PONTIAC MI
200 PM EDT FRI JUL 03 2015

NOTE: "FAIR" INDICATES FEW OR NO CLOUDS BELOW 12,000 FEET WITH NO
SIGNIFICANT WEATHER AND/OR OBSTRUCTION TO VISIBILITY.

MIZ047>049-052>055-059>063-066>070-074>076-081>083-031900-
SOUTHEAST LOWER MICHIGAN

CITY           SKY/WX    TMP DP  RH WIND       PRES   REMARKS
ADRIAN         PTSUNNY   72  54  53 VRB3      29.99S
6HR MIN TEMP:  59; 6HR MAX TEMP:  72;

ALMA           PTSUNNY   72  42  34 N5        29.99S
ANN ARBOR      PTSUNNY   72  53  51 S7        29.98S
BAD AXE        PTSUNNY   70  41  34 CALM      29.99F
CARO           PTSUNNY   70  47  43 CALM      29.98F
DETROIT CITY   PTSUNNY   72  53  51 SE6       29.98S
6HR MIN TEMP:  57; 6HR MAX TEMP:  72;

DETROIT        CLOUDY    72  53  51 S5        29.99R
6HR MIN TEMP:  58; 6HR MAX TEMP:  73;

FLINT          PTSUNNY   73  41  31 S3        29.99S
6HR MIN TEMP:  56; 6HR MAX TEMP:  74;

GROSSE ILE     PTSUNNY   70  57  64 S8        29.98R
HILLSDALE      PTSUNNY   70  50  49 CALM      29.99S
6HR MIN TEMP:  58; 6HR MAX TEMP:  70;

HOWELL         MOSUNNY   71  48  43 NE3       29.99S
6HR MIN TEMP:  54; 6HR MAX TEMP:  72;


CITY           SKY/WX    TMP DP  RH WIND       PRES   REMARKS
JACKSON        PTSUNNY   72  55  55 CALM      29.98F
6HR MIN TEMP:  57; 6HR MAX TEMP:  72;

LAMBERTVILLE   PTSUNNY   71  55  58 E5        29.98F
6HR MIN TEMP:  61; 6HR MAX TEMP:  73;

LANSING        MOSUNNY   71  49  45 CALM      29.99F
6HR MIN TEMP:  55; 6HR MAX TEMP:  73;

LAPEER         FAIR      71  46  40 CALM      29.99S
MASON          MOSUNNY   70  52  54 CALM      29.99S
MONROE         CLOUDY    70  54  56 SE7       29.98F
6HR MIN TEMP:  59; 6HR MAX TEMP:  71;

MT. CLEMENS    PTSUNNY   71  55  56 S8        29.96F
6HR MIN TEMP:  56; 6HR MAX TEMP:  71;

PONTIAC        CLOUDY    73  48  41 VRB3      29.98S
6HR MIN TEMP:  56; 6HR MAX TEMP:  74;

PORT HOPE        N/A     65  52  62 E14       29.98F
6HR MIN TEMP:  55; 6HR MAX TEMP:  68;

PORT HURON     PTSUNNY   70  55  60 CALM      29.98F
TRI CITIES     PTSUNNY   73  45  36 CALM      29.99F
6HR MIN TEMP:  56; 6HR MAX TEMP:  73;

MIDLAND        FAIR      71  42  34 NE3       29.99S
TROY           MOSUNNY   74  50  42 E6        29.99F
SAGINAW HB     CLOUDY    70  41  35 CALM      29.99S
$$
MIZ043>046-050>051-056>058-064>065-071>073-077>080-031900-
SOUTHWEST LOWER MICHIGAN

CITY           SKY/WX    TMP DP  RH WIND       PRES   REMARKS
BATTLE CREEK   PTSUNNY   73  53  49 S6        29.99S
6HR MIN TEMP:  59; 6HR MAX TEMP:  75;

BENTON HARBOR  PTSUNNY   71  56  58 NW6       29.98S
6HR MIN TEMP:  58; 6HR MAX TEMP:  73;

BIG RAPIDS     MOSUNNY   73  45  36 E3        29.97F
6HR MIN TEMP:  51; 6HR MAX TEMP:  73;

COLDWATER      PTSUNNY   71  50  47 CALM      29.98F
6HR MIN TEMP:  57; 6HR MAX TEMP:  71;

FREMONT        FAIR      73  42  32 CALM      29.98F
HOLLAND        PTSUNNY   73  55  53 W9        29.99S
6HR MIN TEMP:  58; 6HR MAX TEMP:  75;

GRAND RAPIDS   PTSUNNY   71  51  49 E6        29.99S
6HR MIN TEMP:  55; 6HR MAX TEMP:  73;

IONIA          FAIR      72  48  42 CALM      29.99S
KALAMAZOO      PTSUNNY   72  52  49 VRB3      29.99S
6HR MIN TEMP:  59; 6HR MAX TEMP:  74;

LUDINGTON      SUNNY     71  51  48 W8        29.99S
6HR MIN TEMP:  53; 6HR MAX TEMP:  71;

MARSHALL       PTSUNNY   70  52  52 CALM      29.98S
MOUNT PLEASANT PTSUNNY   71  45  39 CALM      29.98F
6HR MIN TEMP:  51; 6HR MAX TEMP:  71;

MUSKEGON       MOSUNNY   74  52  46 VRB7      29.98F
6HR MIN TEMP:  58; 6HR MAX TEMP:  74;

SOUTH HAVEN    PTSUNNY   71  55  56 NW8       29.99S
$$
MIZ016>042-031900-
NORTHERN LOWER MICHIGAN

CITY           SKY/WX    TMP DP  RH WIND       PRES   REMARKS
ALPENA         MOSUNNY   76  46  34 SW9       29.96F
6HR MIN TEMP:  55; 6HR MAX TEMP:  77;

BEAVER ISLAND  MOSUNNY   66  54  63 SW15G21   29.93F
6HR MIN TEMP:  59; 6HR MAX TEMP:  67;

BELLAIRE       SUNNY     73  50  44 W3        29.96F
6HR MIN TEMP:  53; 6HR MAX TEMP:  73;

CADILLAC       SUNNY     74  51  44 S3        29.97F
CHARLEVOIX     SUNNY     72  51  47 W14       29.98S
FRANKFORT      SUNNY     70  40  33 W8        29.99S
GAYLORD        SUNNY     71  48  43 NW9       29.97F
6HR MIN TEMP:  54; 6HR MAX TEMP:  72;

GRAYLING       MOSUNNY   73  51  44 W6        29.98S
6HR MIN TEMP:  48; 6HR MAX TEMP:  74;

HARBOR SPRINGS SUNNY     71  53  52 W6        29.95S
HOUGHTON LAKE  SUNNY     71  48  43 SW6       29.99F
6HR MIN TEMP:  49; 6HR MAX TEMP:  72;

MANISTEE       SUNNY     70  45  40 W12       29.99S
OSCODA         MOSUNNY   74  42  32 S8G16     29.97F
PELLSTON       MOSUNNY   72  51  47 SW12      29.94F
6HR MIN TEMP:  61; 6HR MAX TEMP:  72;

ROGERS CITY    PTSUNNY   76  54  46 W7        29.95F
TRAVERSE CITY  CLOUDY    76  52  43 W9        29.95S
6HR MIN TEMP:  56; 6HR MAX TEMP:  76;

$$
MIZ007>008-015-031900-
EASTERN UPPER MICHIGAN

CITY           SKY/WX    TMP DP  RH WIND       PRES   REMARKS
KINROSS        MOSUNNY   70  55  60 SW8       29.91S
6HR MIN TEMP:  57; 6HR MAX TEMP:  70;

MACKINAC ISLAN MOSUNNY   67  53  60 SW12G20   29.93S
6HR MIN TEMP:  61; 6HR MAX TEMP:  67;

NEWBERRY       PTSUNNY   70  59  67 SW7       29.88F
S. S. MARIE    PTSUNNY   71  56  58 SW12      29.89S
6HR MIN TEMP:  59; 6HR MAX TEMP:  73; 6HR PCP: TRACE;

MUNISING         N/A     74  58  57 S7        29.85F
6HR MIN TEMP:  62; 6HR MAX TEMP:  76;

$$
MIZ004>006-011>014-085-031900-
CENTRAL UPPER MICHIGAN

CITY           SKY/WX    TMP DP  RH WIND       PRES   REMARKS
MANISTIQUE     PTSUNNY   61  55  81 S12G17    29.90S
6HR MIN TEMP:  59; 6HR MAX TEMP:  65;

ESCANABA       MOSUNNY   72  55  56 S14       29.89S
6HR MIN TEMP:  54; 6HR MAX TEMP:  73;

MENOMINEE      SUNNY     72  54  53 W9        29.92F
6HR MIN TEMP:  55; 6HR MAX TEMP:  72;

SAWYER-GWINN   PTSUNNY   91  55  29 W16G23    29.87F
$$
MIZ001>003-009>011-084-031900-
WESTERN UPPER MICHIGAN

CITY           SKY/WX    TMP DP  RH WIND       PRES   REMARKS
IRON MOUNTAIN  MOSUNNY   74  55  51 SW8       29.90F
6HR MIN TEMP:  55; 6HR MAX TEMP:  75;

HOUGHTON       MOSUNNY   72  55  55 W22       29.84R
6HR MIN TEMP:  63; 6HR MAX TEMP:  73; 6HR PCP:  0.01;

COPPER HARBOR    N/A     73  56  54 NW9G20    29.80S
6HR MIN TEMP:  60; 6HR MAX TEMP:  73; 6HR PCP:  0.03;

IRONWOOD       MOSUNNY   72  57  60 W10       29.86S
6HR MIN TEMP:  61; 6HR MAX TEMP:  72;

$$

ABBREVIATIONS USED IN REMARKS
   TC - TEMPERATURE IN CELSIUS
  WCI - WIND CHILL INDEX
   HX - HEAT INDEX
  VSB - VISIBILITY



USA.gov is the U.S. government's official web portal to all federal, state and local government web resources and services.